Location: Unspecified
(52.4292°N, 19.3359°E)
Time: 15:26:29
(UTC+02:00)

Transit 2A Rocket - Pass Details

Date: 23 May 2024
Orbit: 583 x 910 km, 66.7° (Epoch: 14 June)

Event Time Altitude Azimuth Distance (km) Brightness Sun altitude
Rises 11:41:07 0° 320° (NW) 3,357 8.0 56.3°
Reaches altitude 10° 11:43:34 10° 325° (NW) 2,465 7.4 56.5°
Maximum altitude 11:49:13 55° 43° (NE) 1,048 6.3 56.8°
Drops below altitude 10° 11:55:09 10° 121° (ESE) 2,585 8.3 57.1°
Sets 11:57:46 0° 126° (SE) 3,532 8.8 57.3°
